Temperature
16 16 16 16 16 16 16 16 16 17 18 17 17 17 16 16 16 16 16 16 16 16 16 16 16 16 16 16 16 16 16 15 15 15 15 15 15 15
15 15 15 15 15 15 16 16 16 16 17 17 16 16 16 16 16 15 16 16 16 16 16 16 16 16 16 16 16 16 15 15 15 15 15 15 15 15
15 15 15 15 15 15 15 15 16 16 16 16 16 16 15 15 15 15 15 15 16 16 16 16 16 16 16 15 15 15 15 15 15 15 15 15 15 15
15 14 14 15 14 15 15 15 15 15 15 15 15 15 15 15 15 15 15 15 15 16 16 16 16 16 16 15 15 15 15 15 15 15 15 15 15 15
14 14 14 14 14 14 14 15 15 15 15 15 15 15 15 15 15 15 15 15 15 16 16 15 15 15 15 15 15 15 15 15 15 15 15 15 15 15
14 14 14 14 14 14 14 14 14 14 14 15 15 15 15 15 15 15 15 15 15 15 15 15 15 15 15 15 15 15 15 15 15 15 15 15 15 14
14 14 14 14 14 14 14 14 14 14 14 15 15 15 15 15 15 15 15 15 15 15 15 15 15 15 15 15 15 15 15 15 15 15 15 15 15 14
14 14 14 14 14 14 14 14 14 13 14 14 14 14 14 14 14 14 14 14 15 15 15 15 15 15 15 15 15 15 15 15 14 14 14 14 14 14
13 13 13 14 13 13 13 14 14 14 13 13 14 14 14 14 13 14 14 14 14 14 14 14 15 15 15 15 15 14 14 14 14 14 14 14 14 14
13 13 13 13 13 13 13 13 13 13 13 13 13 13 13 13 13 13 13 13 14 14 14 14 14 14 14 14 14 14 14 14 14 14 14 14 14 14
13 13 12 12 13 13 13 12 13 13 13 13 13 13 13 13 13 13 13 13 14 14 14 14 14 14 14 14 14 14 14 14 14 14 14 14 13 13
13 13 13 12 12 12 12 12 12 13 13 13 13 13 13 13 13 13 13 13 13 14 14 13 13 13 14 14 14 13 13 13 13 13 13 13 13 13
12 12 12 12 12 12 12 12 12 12 12 13 13 13 13 13 13 13 13 13 13 13 13 13 13 13 13 13 13 13 13 13 13 13 13 13 13 13
12 12 12 12 12 12 12 12 12 12 12 12 12 12 12 13 13 12 12 12 12 12 12 12 12 12 12 12 13 13 13 13 13 13 13 13 13 12
12 12 12 12 12 11 11 12 11 11 11 12 12 12 12 12 12 12 12 12 12 12 12 12 12 12 12 12 12 12 12 12 12 12 12 12 12 12
11 11 12 12 11 11 11 11 11 11 11 11 11 11 11 11 12 11 11 11 11 12 12 11 11 11 11 12 12 12 12 12 12 12 12 12 12 12
11 11 11 11 11 11 11 11 11 10 10 11 11 11 11 11 11 11 11 11 11 11 11 11 11 11 11 11 11 11 11 12 12 11 11 11 11 11
11 11 11 11 11 11 10 11 10 10 10 10 10 10 10 10 11 11 11 11 11 11 11 11 11 11 11 11 11 11 11 11 11 11 11 11 11 11
11 11 10 10 10 10 10 10 10 10 10 10 10 10 10 10 10 10 10 10 10 10 10 10 10 10 10 11 11 11 10 11 11 11 11 11 11 11
10 10 10 10 10 10 10 10 10 10 9 9 9 9 9 10 10 9 9 9 9 9 9 9 10 10 10 10 10 10 10 10 10 10 10 10 10 10
10 10 10 10 10 10 9 9 9 9 9 9 9 9 9 9 9 9 9 9 9 9 9 9 9 9 9 9 9 10 10 10 10 10 10 10 10 9
10 10 9 9 9 9 9 9 9 9 9 9 9 9 9 9 9 8 8 8 8 8 8 9 9 9 9 9 9 9 9 9 9 9 9 9 9 9
9 9 9 9 9 8 8 8 8 8 8 8 8 8 8 8 8 8 8 8 8 8 8 8 8 8 9 9 9 9 9 9 9 9 9 9 9 9
Wind_Speed
3 3 4 3 4 3 4 4 4 5 5 3 3 3 3 4 3 6 7 8 10 10 10 10 10 12 12 12 12 13 13 12 13 13 13 14 14 14
3 4 4 4 4 4 4 4 4 5 6 4 3 3 3 4 3 6 7 8 12 11 11 11 11 12 13 12 13 13 13 13 13 14 13 13 13 14
4 4 5 5 5 5 4 4 5 5 6 6 4 3 3 5 3 5 8 8 8 13 12 12 13 13 13 13 13 13 13 14 14 14 14 14 14 14
4 4 5 4 5 6 5 5 5 5 6 7 6 5 4 4 4 6 6 6 6 9 13 13 13 14 14 14 15 15 15 15 15 15 14 14 14 14
5 5 5 5 6 5 6 6 6 6 6 7 7 4 5 4 5 6 6 5 7 7 12 14 14 14 15 16 16 16 15 15 15 15 15 14 14 14
5 6 6 5 6 6 6 6 6 7 6 7 7 6 5 5 5 5 5 5 7 7 6 8 12 16 17 18 17 16 16 16 15 15 15 15 15 15
6 6 6 4 5 6 7 6 6 6 7 7 7 7 6 5 5 6 6 6 6 6 6 7 7 9 11 15 17 16 15 15 15 15 15 15 15 15
6 6 6 5 6 7 8 9 8 8 8 7 7 7 7 7 6 6 7 6 6 4 6 7 6 7 7 9 11 14 15 15 15 15 15 15 15 15
6 6 6 6 6 7 8 10 10 11 10 9 10 9 8 7 7 8 7 7 8 6 6 8 6 7 7 6 9 12 14 14 14 14 14 14 15 15
5 5 6 7 7 8 9 8 8 8 8 9 9 9 8 7 7 8 8 8 9 7 6 7 6 6 6 5 9 12 12 13 13 13 13 14 15 15
6 5 6 7 6 7 8 8 9 8 8 9 9 9 7 7 7 7 7 7 8 6 4 5 6 5 5 6 6 12 13 13 13 13 13 14 14 14
6 6 3 5 6 5 7 8 9 9 9 7 7 9 9 8 8 8 8 7 7 7 4 4 5 4 5 4 4 5 8 11 14 14 14 14 13 10
6 6 5 3 5 5 7 7 9 10 9 7 6 6 5 5 6 6 6 7 7 7 5 4 6 5 5 5 4 4 4 4 6 8 12 13 13 10
6 6 5 4 5 6 5 7 8 8 7 6 5 5 5 5 5 5 5 6 6 7 7 5 6 6 6 6 5 4 4 4 4 4 4 8 11 12
6 6 7 7 7 6 6 7 6 5 5 5 5 5 5 5 5 4 4 4 6 6 5 6 6 5 6 6 6 5 4 4 4 4 4 4 5 5
7 6 8 8 7 6 5 5 3 4 5 5 6 5 5 4 4 4 4 4 4 4 4 5 5 6 6 7 6 6 5 4 4 4 4 4 4 5
7 6 5 5 4 4 4 3 3 3 4 5 5 5 5 4 4 4 4 4 4 4 4 3 3 4 5 6 6 6 5 5 4 4 4 4 4 4
6 5 4 4 5 5 5 4 3 3 4 5 5 5 5 5 5 4 4 4 4 4 4 4 3 3 4 3 4 5 5 4 4 3 4 4 4 3
3 4 5 5 5 5 5 5 4 4 4 5 5 5 5 5 5 5 4 4 5 5 5 4 4 3 5 5 3 3 4 4 4 4 4 4 4 3
4 4 5 5 4 5 5 5 5 4 4 4 5 5 5 5 5 5 5 5 5 5 4 4 4 4 5 6 5 3 3 4 3 3 3 2 2 1
5 5 5 5 5 5 5 5 5 4 5 5 5 5 5 5 5 5 5 4 5 5 5 4 4 5 5 4 4 3 1 1 1 3 3 3 3 3
5 5 5 5 5 5 5 5 5 5 5 5 5 5 5 5 5 5 5 4 4 5 5 4 3 3 3 3 4 3 2 1 1 3 1 2 3 3
5 6 5 5 5 5 5 5 6 5 5 5 5 5 5 4 4 4 4 4 4 4 4 3 3 2 2 3 3 3 3 3 2 2 1 3 6 4
Wind_Direction
291 285 286 293 288 289 283 279 283 287 284 265 261 258 255 254 208 225 233 201 210 215 218 219 215 209 208 210 212 214 215 215 218 218 222 226 226 224
298 302 294 291 290 283 280 276 271 278 286 289 276 280 298 278 214 243 243 205 210 212 216 218 217 212 209 210 213 214 214 216 217 219 221 224 224 223
291 288 286 293 292 288 282 278 274 273 278 285 284 280 272 283 280 261 248 238 223 208 214 217 220 218 212 213 215 215 216 217 219 220 221 222 223 224
292 292 290 286 283 285 288 283 280 275 273 283 284 277 264 265 272 270 261 246 247 200 204 215 219 217 214 215 218 217 217 218 220 221 221 222 222 223
286 286 288 289 284 285 282 282 279 273 267 271 273 277 271 266 267 264 267 262 256 222 205 212 216 217 217 218 220 219 218 218 219 220 220 221 223 223
285 284 284 286 287 286 276 275 278 278 270 266 269 269 265 263 265 269 269 256 255 251 231 225 217 216 219 218 218 218 218 219 219 219 221 223 222 222
284 282 279 279 295 288 289 290 283 276 273 270 270 270 268 270 268 269 272 272 258 252 249 241 227 231 224 218 215 214 216 217 218 219 221 223 223 222
287 286 281 268 268 260 267 276 281 277 280 280 277 278 280 276 279 278 277 280 279 263 258 255 241 240 236 230 204 203 211 216 218 219 219 220 219 219
288 289 293 296 293 287 268 251 253 249 256 269 278 280 280 283 284 277 279 281 281 283 265 258 248 247 248 230 182 195 204 210 214 217 219 219 218 218
286 288 291 297 300 298 288 284 276 263 250 252 268 275 279 285 279 277 275 271 269 268 263 265 258 256 257 243 187 190 201 207 209 213 216 218 218 219
283 282 286 292 307 304 288 287 286 280 255 243 255 266 283 278 273 278 276 271 273 270 260 269 274 269 265 253 209 192 199 204 210 213 214 216 218 220
283 278 272 282 300 297 285 288 290 292 292 274 253 253 256 249 235 250 265 269 275 278 268 263 270 271 270 262 245 217 211 207 208 213 215 216 216 224
291 289 297 282 278 279 278 285 293 299 293 285 270 265 263 263 256 252 262 272 276 276 281 272 273 268 268 270 266 254 241 231 216 215 210 211 210 213
292 296 305 298 272 269 273 286 293 296 293 291 286 282 281 281 280 276 275 278 281 282 288 278 272 270 269 268 270 258 243 238 232 230 222 194 200 204
290 298 299 283 269 260 251 259 272 285 292 296 297 293 291 292 288 279 272 270 274 275 278 271 265 266 266 268 269 265 263 253 237 231 227 214 211 204
287 281 254 247 250 266 272 262 269 289 290 291 292 295 295 291 286 288 287 284 284 287 284 269 263 263 260 260 260 262 264 257 244 235 231 232 226 219
302 296 295 293 288 284 282 286 288 286 285 290 293 296 298 299 298 297 294 292 289 296 303 296 281 266 268 268 257 255 259 262 251 238 234 239 237 225
291 294 298 294 291 290 284 283 281 284 288 291 292 293 294 294 297 298 294 290 291 291 289 294 299 289 278 268 253 255 256 262 259 243 241 237 243 240
279 297 304 301 294 291 289 290 292 290 288 284 287 290 294 295 295 296 295 293 292 291 292 298 292 271 270 272 259 233 256 263 261 250 243 241 245 241
302 302 303 303 304 306 304 300 296 297 291 288 289 289 291 292 291 292 293 295 294 290 290 293 292 286 274 277 288 291 249 256 255 249 248 255 252 206
313 313 314 314 314 315 315 311 301 292 291 287 286 288 288 286 286 287 286 284 285 289 289 288 293 278 272 274 274 277 294 174 221 250 248 245 241 238
311 311 311 311 312 312 311 309 303 299 296 292 293 291 288 287 285 286 289 290 286 285 291 298 304 286 271 265 268 272 281 277 182 171 216 238 242 247
309 308 305 305 306 309 311 311 307 305 302 299 296 295 291 286 286 291 292 291 294 291 292 299 305 302 289 274 271 274 277 273 269 254 255 173 186 194
Height
1512 1511 1511 1510 1509 1509 1508 1507 1507 1505 1503 1502 1502 1502 1501 1500 1499 1498 1498 1498 1498 1498 1498 1499 1500 1501 1502 1504 1505 1506 1508 1509 1510 1512 1513 1514 1516 1517
1510 1509 1508 1509 1508 1507 1506 1505 1504 1504 1501 1501 1500 1499 1498 1498 1496 1495 1495 1494 1494 1494 1494 1495 1495 1497 1498 1499 1501 1502 1504 1505 1506 1508 1509 1510 1511 1512
1509 1508 1507 1506 1505 1505 1504 1503 1502 1501 1499 1498 1498 1496 1494 1494 1493 1492 1492 1491 1491 1490 1490 1491 1491 1492 1493 1495 1496 1498 1499 1501 1502 1503 1504 1505 1506 1507
1507 1506 1505 1504 1502 1502 1501 1501 1500 1499 1498 1496 1495 1493 1492 1490 1489 1488 1489 1488 1488 1487 1487 1487 1487 1488 1489 1491 1492 1493 1495 1496 1497 1499 1499 1500 1501 1502
1504 1503 1502 1501 1500 1500 1498 1498 1497 1496 1495 1494 1492 1491 1489 1488 1486 1486 1485 1484 1484 1484 1483 1483 1483 1484 1485 1486 1487 1489 1490 1491 1493 1493 1494 1495 1496 1497
1502 1500 1500 1499 1497 1496 1495 1494 1493 1492 1491 1490 1489 1488 1487 1485 1484 1483 1482 1481 1480 1481 1480 1480 1479 1479 1480 1481 1482 1484 1485 1486 1487 1488 1489 1490 1491 1492
1499 1497 1496 1495 1494 1493 1492 1491 1490 1489 1488 1487 1486 1485 1484 1483 1482 1481 1480 1478 1477 1477 1476 1476 1476 1475 1475 1476 1477 1478 1479 1481 1482 1483 1484 1485 1486 1488
1496 1495 1494 1492 1490 1489 1488 1487 1486 1485 1484 1483 1482 1481 1480 1480 1478 1477 1477 1475 1474 1473 1472 1472 1472 1472 1472 1472 1472 1473 1474 1475 1476 1478 1479 1480 1481 1483
1493 1491 1491 1489 1487 1486 1484 1483 1482 1480 1480 1479 1478 1477 1476 1476 1474 1473 1472 1472 1471 1470 1468 1467 1467 1467 1468 1468 1467 1468 1469 1470 1471 1472 1473 1475 1476 1478
1489 1488 1486 1485 1483 1481 1480 1479 1477 1476 1475 1474 1473 1473 1472 1471 1470 1470 1468 1467 1466 1466 1465 1464 1463 1463 1464 1463 1463 1463 1464 1465 1466 1467 1468 1469 1471 1472
1486 1484 1483 1481 1479 1478 1476 1474 1473 1472 1471 1470 1469 1468 1467 1466 1466 1465 1465 1464 1463 1462 1461 1460 1459 1459 1459 1459 1459 1459 1459 1460 1461 1462 1463 1464 1465 1467
1483 1481 1479 1477 1476 1474 1472 1471 1469 1468 1467 1466 1464 1463 1463 1462 1461 1461 1461 1460 1459 1458 1457 1456 1456 1455 1455 1455 1455 1455 1455 1455 1456 1457 1458 1459 1460 1462
1480 1478 1476 1474 1472 1470 1468 1467 1465 1464 1463 1462 1461 1460 1459 1458 1458 1457 1456 1456 1455 1454 1454 1453 1453 1452 1452 1451 1451 1451 1451 1451 1452 1452 1453 1454 1456 1457
1476 1474 1473 1470 1468 1466 1465 1463 1462 1460 1459 1458 1457 1456 1455 1454 1454 1453 1452 1451 1451 1450 1449 1449 1449 1448 1448 1447 1447 1447 1448 1448 1448 1449 1449 1450 1451 1452
1471 1469 1468 1466 1464 1463 1461 1459 1458 1457 1456 1455 1454 1453 1452 1451 1450 1449 1447 1446 1446 1445 1445 1445 1445 1444 1444 1443 1443 1443 1444 1444 1444 1444 1445 1445 1446 1447
1468 1465 1463 1462 1460 1459 1458 1456 1455 1454 1453 1452 1451 1450 1449 1448 1446 1445 1445 1443 1443 1442 1441 1441 1440 1440 1440 1439 1439 1439 1439 1440 1440 1440 1441 1442 1443 1443
1464 1462 1460 1459 1458 1456 1455 1453 1452 1451 1450 1449 1448 1447 1446 1444 1443 1442 1441 1440 1439 1438 1437 1437 1436 1436 1435 1435 1435 1435 1436 1436 1436 1437 1437 1438 1439 1439
1460 1459 1457 1456 1455 1453 1452 1450 1449 1448 1447 1446 1444 1444 1442 1441 1440 1439 1438 1437 1436 1435 1434 1434 1433 1432 1432 1431 1432 1432 1432 1432 1433 1433 1434 1434 1435 1436
1458 1456 1455 1453 1452 1450 1449 1447 1446 1445 1443 1442 1441 1440 1439 1438 1437 1436 1435 1434 1433 1432 1431 1431 1430 1429 1429 1428 1428 1429 1429 1429 1429 1430 1430 1431 1431 1432
1456 1454 1452 1450 1449 1447 1445 1444 1443 1442 1440 1439 1438 1437 1436 1435 1434 1433 1432 1431 1430 1429 1428 1427 1427 1426 1425 1426 1426 1425 1425 1425 1426 1426 1427 1427 1428 1429
1453 1452 1450 1448 1446 1444 1442 1441 1440 1438 1437 1436 1435 1434 1433 1432 1431 1430 1429 1428 1427 1426 1425 1424 1423 1423 1422 1423 1423 1422 1422 1422 1422 1423 1423 1424 1424 1425
1451 1449 1448 1446 1443 1441 1440 1438 1437 1435 1434 1433 1432 1431 1430 1429 1428 1426 1426 1425 1424 1423 1422 1422 1421 1420 1420 1420 1419 1419 1420 1419 1419 1419 1420 1420 1420 1421
1448 1447 1445 1443 1441 1439 1437 1436 1434 1432 1431 1429 1428 1427 1426 1425 1424 1423 1423 1422 1421 1421 1420 1419 1419 1418 1418 1417 1417 1417 1417 1417 1417 1416 1416 1417 1417 1418